Ana Sayfa
METAR-TAF:

METAR-TAF

Havaalanları :

Edinburg, Teksas, Amerika Birleşik Devletleri

Enlem: 26-26-31N, Boylam: 098-07-46W, yükseklik: 24 m

Güncel hava durumu gözlemi

Rapor saat 03:15 UTC de 21 dakika önce yapıldı.
Rüzgar doğu/güneydoğudan 3 kt
Sıcaklık 17°C
Nem 88%
Basınç 1014 hPa
Görüş mesafesi: 16.1 km
Açık gökyüzü

METAR: KEBG 190315Z AUTO 12003KT 10SM CLR 17/15 A2995 RMK AO2 T01660152

Saat: 21:36 (03:36 UTC)


TAF: eksik

4.000'den fazla havaalanı için hava durumu gözlemleri ve tahminleri (METAR ve TAF raporları).

Kullanılabilir istasyonlar harita üzerinde sarı ve kırmızı noktalarla gösterilir.

İstasyonun adını görmek için fareyi noktanın üzerinde gezdirin.

Sonrasında hava gözlem ve tahminlerini görmek için tıklayın.

Haritayı değiştirmek için: yaklaştırmak için siyah artı işaretli yeşil düğmeye ve uzaklaştırmak için de eksi işaretli düğmeye hızla tıklayın; bitişik haritalar için yeşil okları kullanın.


METAR-TAF: